KG4IFE-13 Weather Reports


time (UTC)temp
F
wind
direction
speed
knots
gust
knots
rain 1hr
in
rain 24hr
in
rain mn
in
humidity
%
barometer
mb
20260508063410 43 0.0 0.9 0.00 0.00 0.00 80 1015.3
20260508062909 43 0.0 0.9 0.00 0.00 0.00 80 1015.3
20260508062349 44 135 0.9 0.9 0.00 0.00 0.00 80 1015.3
20260508061846 44 135 0.9 0.9 0.00 0.00 0.00 80 1015.3
20260508061411 44 185 0.9 0.9 0.00 0.00 0.00 80 1015.4
20260508060847 44 185 0.9 0.9 0.00 0.00 0.00 80 1015.4
20260508060344 44 194 0.9 0.9 0.00 0.00 0.00 80 1015.3
20260508055842 44 194 0.9 0.9 0.00 0.00 0.00 80 1015.3
20260508055343 45 0.0 0.9 0.00 0.00 0.00 79 1015.2
20260508054841 45 0.0 0.9 0.00 0.00 0.00 79 1015.2
20260508054341 45 180 0.9 0.9 0.00 0.00 0.00 79 1015.1
20260508053838 45 180 0.9 0.9 0.00 0.00 0.00 79 1015.1
20260508053337 45 0.0 0.9 0.00 0.00 0.00 79 1014.9
20260508052839 45 0.0 0.9 0.00 0.00 0.00 79 1014.9
20260508052336 46 0.0 0.9 0.00 0.00 0.00 79 1014.8
20260508051836 46 0.0 0.9 0.00 0.00 0.00 79 1014.8
20260508051334 46 185 0.9 0.9 0.00 0.00 0.00 78 1014.7
20260508050833 46 185 0.9 0.9 0.00 0.00 0.00 78 1014.7
20260508050331 46 185 0.9 0.9 0.00 0.00 0.00 78 1014.7
20260508045832 46 0.0 0.9 0.00 0.00 0.00 78 1014.6
20260508045332 46 0.0 0.9 0.00 0.00 0.00 78 1014.6
20260508044829 47 0.0 0.9 0.00 0.00 0.00 77 1014.5
20260508044330 47 0.0 0.9 0.00 0.00 0.00 77 1014.5
20260508043827 47 0.0 0.9 0.00 0.00 0.00 77 1014.4
20260508043328 47 0.0 0.9 0.00 0.00 0.00 77 1014.4
20260508042826 48 0.0 0.9 0.00 0.00 0.00 76 1014.3
20260508042324 48 0.0 0.9 0.00 0.00 0.00 76 1014.3
20260508041824 48 0.0 0.9 0.00 0.00 0.00 75 1014.4
20260508041322 48 0.0 0.9 0.00 0.00 0.00 75 1014.4
20260508040823 49 180 0.9 0.9 0.00 0.00 0.00 74 1014.2
20260508040323 49 180 0.9 0.9 0.00 0.00 0.00 74 1014.2
20260508035820 49 195 0.9 0.9 0.00 0.00 0.00 73 1014.0
20260508035318 49 195 0.9 0.9 0.00 0.00 0.00 73 1014.0
20260508034817 50 0.0 0.9 0.00 0.00 0.00 71 1014.1
20260508034317 50 0.0 0.9 0.00 0.00 0.00 71 1014.1
20260508033836 51 0.0 0.9 0.00 0.00 0.00 70 1014.0
20260508033335 51 0.0 0.9 0.00 0.00 0.00 70 1014.0
20260508032812 52 0.0 0.9 0.00 0.00 0.00 68 1013.9
20260508032313 52 0.0 0.9 0.00 0.00 0.00 68 1013.9
20260508031831 54 218 0.9 0.9 0.00 0.00 0.00 65 1013.9
20260508031311 54 218 0.9 0.9 0.00 0.00 0.00 65 1013.9
20260508030809 55 270 0.9 1.7 0.00 0.00 0.00 64 1013.8
20260508025807 55 308 0.9 0.9 0.00 0.00 0.00 62 1013.6
20260508025306 55 308 0.9 0.9 0.00 0.00 0.00 62 1013.6
20260508024806 55 324 0.9 0.9 0.00 0.00 0.00 62 1013.5
20260508024304 55 324 0.9 0.9 0.00 0.00 0.00 62 1013.5
20260508023803 55 315 0.9 1.7 0.00 0.00 0.00 63 1013.6
20260508023325 55 315 0.9 1.7 0.00 0.00 0.00 63 1013.6
20260508022802 55 325 0.9 0.9 0.00 0.00 0.00 63 1013.2
20260508022301 55 325 0.9 0.9 0.00 0.00 0.00 63 1013.2
20260508021759 55 0.0 0.9 0.00 0.00 0.00 63 1013.0
20260508021342 55 0.0 0.9 0.00 0.00 0.00 63 1013.0
20260508020757 56 315 0.9 1.7 0.00 0.00 0.00 62 1012.9
20260508020256 56 315 0.9 1.7 0.00 0.00 0.00 62 1012.9
20260508015755 56 307 0.9 0.9 0.00 0.00 0.00 62 1012.7
20260508015256 56 307 0.9 0.9 0.00 0.00 0.00 62 1012.7
20260508014754 57 315 0.9 1.7 0.00 0.00 0.00 61 1012.6
20260508014252 57 315 0.9 1.7 0.00 0.00 0.00 61 1012.6
20260508013751 56 319 0.9 1.7 0.00 0.00 0.00 61 1012.3
20260508013251 56 319 0.9 1.7 0.00 0.00 0.00 61 1012.3
20260508012750 56 315 0.9 0.9 0.00 0.00 0.00 62 1012.2
20260508012247 56 315 0.9 0.9 0.00 0.00 0.00 62 1012.2
20260508011747 57 329 0.9 0.9 0.00 0.00 0.00 61 1012.0
20260508011246 57 329 0.9 0.9 0.00 0.00 0.00 61 1012.0
20260508010806 57 315 0.9 1.7 0.00 0.00 0.00 62 1011.9
20260508010244 57 315 0.9 1.7 0.00 0.00 0.00 62 1011.9
20260508005746 57 320 0.9 0.9 0.00 0.00 0.00 62 1011.9
20260508005241 57 320 0.9 0.9 0.00 0.00 0.00 62 1011.9
20260508004740 57 309 0.9 0.9 0.00 0.00 0.00 62 1011.9
20260508004241 57 309 0.9 0.9 0.00 0.00 0.00 62 1011.9
20260508003739 58 315 0.9 0.9 0.00 0.00 0.00 61 1011.9
20260508003319 58 315 0.9 0.9 0.00 0.00 0.00 61 1011.9
20260508002737 58 0.0 0.9 0.00 0.00 0.00 60 1011.8
20260508002236 58 0.0 0.9 0.00 0.00 0.00 60 1011.8
20260508001835 59 315 0.9 1.7 0.00 0.00 0.00 59 1011.8
20260508001257 59 315 0.9 1.7 0.00 0.00 0.00 59 1011.8
20260508000732 59 315 0.9 1.7 0.00 0.00 0.00 60 1011.7
20260508000253 59 315 0.9 1.7 0.00 0.00 0.00 60 1011.7
20260507235811 59 309 0.9 1.7 0.00 0.00 0.00 60 1011.5
20260507235232 59 309 0.9 1.7 0.00 0.00 0.00 60 1011.5
20260507234728 60 327 0.9 2.6 0.00 0.00 0.00 60 1011.4
20260507234229 60 327 0.9 2.6 0.00 0.00 0.00 60 1011.4
20260507233727 60 310 0.9 3.5 0.00 0.00 0.00 60 1011.2
20260507233247 60 310 0.9 3.5 0.00 0.00 0.00 60 1011.2
20260507232726 60 329 0.9 3.5 0.00 0.00 0.00 59 1010.9
20260507232224 60 329 0.9 3.5 0.00 0.00 0.00 59 1010.9
20260507231724 61 323 0.9 2.6 0.00 0.00 0.00 59 1010.9
20260507231222 61 323 0.9 2.6 0.00 0.00 0.00 59 1010.9
20260507230722 61 334 0.9 1.7 0.00 0.00 0.00 62 1010.8
20260507230220 61 334 0.9 1.7 0.00 0.00 0.00 62 1010.8
20260507225720 61 315 0.9 2.6 0.00 0.00 0.00 61 1010.6
20260507225218 61 315 0.9 2.6 0.00 0.00 0.00 61 1010.6
20260507224718 62 319 0.9 2.6 0.00 0.00 0.00 62 1010.5
20260507224217 62 319 0.9 2.6 0.00 0.00 0.00 62 1010.5
20260507223716 62 315 0.9 3.5 0.00 0.00 0.00 62 1010.4
20260507223213 62 315 0.9 3.5 0.00 0.00 0.00 62 1010.4
20260507222734 63 336 0.9 2.6 0.00 0.00 0.00 64 1010.2
20260507222211 63 336 0.9 2.6 0.00 0.00 0.00 64 1010.2
20260507221712 62 333 0.9 1.7 0.00 0.00 0.00 67 1010.1
20260507221211 62 333 0.9 1.7 0.00 0.00 0.00 67 1010.1
20260507220710 62 270 0.9 1.7 0.00 0.00 0.00 69 1010.1
20260507220208 62 270 0.9 1.7 0.00 0.00 0.00 69 1010.1
20260507215728 63 0.0 0.9 0.00 0.00 0.00 68 1010.0
20260507215207 63 0.0 0.9 0.00 0.00 0.00 68 1010.0
20260507214704 64 240 0.9 1.7 0.00 0.00 0.00 67 1010.0
20260507214205 64 240 0.9 1.7 0.00 0.00 0.00 67 1010.0
20260507213702 64 270 0.9 0.9 0.00 0.00 0.00 68 1010.1
20260507213204 64 270 0.9 0.9 0.00 0.00 0.00 68 1010.1
20260507212721 64 303 0.9 1.7 0.00 0.00 0.00 66 1010.1
20260507212201 64 303 0.9 1.7 0.00 0.00 0.00 66 1010.1
20260507211659 66 270 0.9 1.7 0.00 0.00 0.00 65 1010.0
20260507211158 66 270 0.9 1.7 0.00 0.00 0.00 65 1010.0
20260507210659 67 270 0.9 2.6 0.00 0.00 0.00 67 1010.0
20260507210156 67 270 0.9 2.6 0.00 0.00 0.00 67 1010.0
20260507205717 66 270 0.9 3.5 0.00 0.00 0.00 68 1009.8
20260507205153 66 270 0.9 3.5 0.00 0.00 0.00 68 1009.8
20260507204653 64 192 0.9 2.6 0.00 0.00 0.00 72 1009.8
20260507204152 64 192 0.9 2.6 0.00 0.00 0.00 72 1009.8
20260507203651 62 153 0.9 2.6 0.00 0.00 0.00 72 1009.9
20260507203149 62 153 0.9 2.6 0.00 0.00 0.00 72 1009.9
20260507202649 62 185 0.9 2.6 0.00 0.00 0.00 70 1009.9
20260507202147 62 185 0.9 2.6 0.00 0.00 0.00 70 1009.9
20260507201646 60 122 0.9 3.5 0.00 0.00 0.00 74 1010.1
20260507201145 60 122 0.9 3.5 0.00 0.00 0.00 74 1010.1
20260507200643 59 135 0.9 1.7 0.00 0.00 0.00 74 1010.4
20260507200145 59 135 0.9 1.7 0.00 0.00 0.00 74 1010.4
20260507195642 58 123 0.9 1.7 0.00 0.00 0.00 74 1010.8
20260507195143 58 123 0.9 1.7 0.00 0.00 0.00 74 1010.8
20260507194640 58 90 0.9 1.7 0.00 0.00 0.00 75 1011.1
20260507194139 58 90 0.9 1.7 0.00 0.00 0.00 75 1011.1
20260507193640 58 135 0.9 0.9 0.00 0.00 0.00 74 1011.2
20260507193136 58 135 0.9 0.9 0.00 0.00 0.00 74 1011.2
20260507192636 58 45 0.9 2.6 0.00 0.00 0.00 75 1011.3
20260507192137 58 45 0.9 2.6 0.00 0.00 0.00 75 1011.3
20260507191636 58 14 0.9 1.7 0.00 0.00 0.00 76 1011.2
20260507191135 58 14 0.9 1.7 0.00 0.00 0.00 76 1011.2
20260507190653 58 42 0.9 3.5 0.00 0.00 0.00 76 1011.4
20260507190131 58 42 0.9 3.5 0.00 0.00 0.00 76 1011.4
20260507185631 57 16 0.9 2.6 0.00 0.00 0.00 77 1011.6
20260507185130 57 16 0.9 2.6 0.00 0.00 0.00 77 1011.6
20260507184628 57 49 0.9 3.5 0.00 0.00 0.00 78 1011.5
20260507184128 57 49 0.9 3.5 0.00 0.00 0.00 78 1011.5
20260507183646 56 42 0.9 3.5 0.00 0.00 0.00 78 1011.6
20260507183127 56 42 0.9 3.5 0.00 0.00 0.00 78 1011.6
20260507182624 56 45 0.9 3.5 0.00 0.00 0.00 79 1011.3
20260507182123 56 45 0.9 3.5 0.00 0.00 0.00 79 1011.3
20260507181704 56 18 0.9 1.7 0.00 0.00 0.00 79 1011.5
20260507181144 56 18 0.9 1.7 0.00 0.00 0.00 79 1011.5
20260507180621 56 18 0.9 0.9 0.00 0.00 0.00 80 1011.5
20260507180139 56 18 0.9 0.9 0.00 0.00 0.00 80 1011.5
20260507175619 56 38 0.9 2.6 0.00 0.00 0.00 79 1011.4
20260507175118 56 38 0.9 2.6 0.00 0.00 0.00 79 1011.4
20260507174636 56 2 0.9 0.9 0.00 0.00 0.00 78 1011.6
20260507174135 56 2 0.9 0.9 0.00 0.00 0.00 78 1011.6
20260507173613 56 18 0.9 0.9 0.00 0.00 0.00 77 1011.5
20260507173112 56 18 0.9 0.9 0.00 0.00 0.00 77 1011.5
20260507172634 57 8 0.9 2.6 0.00 0.00 0.00 75 1011.4
20260507172111 57 8 0.9 2.6 0.00 0.00 0.00 75 1011.4
20260507171611 57 4 0.9 1.7 0.00 0.00 0.00 75 1011.7
20260507171109 57 4 0.9 1.7 0.00 0.00 0.00 75 1011.7
20260507170628 57 352 0.9 3.5 0.00 0.00 0.00 74 1011.6
20260507170108 57 352 0.9 3.5 0.00 0.00 0.00 74 1011.6
20260507165607 57 15 0.9 3.5 0.00 0.00 0.00 75 1011.5
20260507165104 57 15 0.9 3.5 0.00 0.00 0.00 75 1011.5
20260507164624 57 2 0.9 0.9 0.00 0.00 0.00 75 1011.5
20260507164103 57 2 0.9 0.9 0.00 0.00 0.00 75 1011.5
20260507163602 58 356 0.9 1.7 0.00 0.00 0.00 75 1011.5
20260507163101 58 356 0.9 1.7 0.00 0.00 0.00 75 1011.5
20260507162601 58 32 0.9 3.5 0.00 0.00 0.00 75 1011.6
20260507162100 58 32 0.9 3.5 0.00 0.00 0.00 75 1011.6
20260507161600 58 40 0.9 3.5 0.00 0.00 0.00 75 1011.6
20260507161057 58 40 0.9 3.5 0.00 0.00 0.00 75 1011.6
20260507160558 58 0 0.9 2.6 0.00 0.00 0.00 75 1011.8
20260507160056 58 0 0.9 2.6 0.00 0.00 0.00 75 1011.8
20260507155555 58 22 0.9 3.5 0.00 0.00 0.00 75 1012.0
20260507155053 58 22 0.9 3.5 0.00 0.00 0.00 75 1012.0
20260507154612 58 22 0.9 3.5 0.00 0.00 0.00 75 1012.0
20260507154051 58 6 0.9 2.6 0.00 0.00 0.00 75 1011.9
20260507153550 58 6 0.9 2.6 0.00 0.00 0.00 75 1011.9
20260507153049 58 22 0.9 4.3 0.00 0.00 0.00 75 1011.9
20260507152611 58 22 0.9 4.3 0.00 0.00 0.00 75 1011.9
20260507152108 58 31 0.9 2.6 0.00 0.00 0.00 75 1011.8
20260507151546 58 31 0.9 2.6 0.00 0.00 0.00 75 1011.8
20260507151045 59 5 0.9 2.6 0.00 0.00 0.00 75 1011.7
20260507150544 59 5 0.9 2.6 0.00 0.00 0.00 75 1011.7
20260507150044 59 6 0.9 1.7 0.00 0.00 0.00 76 1011.6
20260507145542 59 6 0.9 1.7 0.00 0.00 0.00 76 1011.6
20260507145041 59 18 0.9 3.5 0.00 0.00 0.00 76 1011.6
20260507144540 59 18 0.9 3.5 0.00 0.00 0.00 76 1011.6
20260507144040 59 11 0.9 1.7 0.00 0.00 0.00 77 1011.5
20260507143540 59 11 0.9 1.7 0.00 0.00 0.00 77 1011.5
20260507143038 59 7 0.9 1.7 0.00 0.00 0.00 77 1011.5
20260507142536 59 7 0.9 1.7 0.00 0.00 0.00 77 1011.5
20260507142035 59 4 0.9 1.7 0.00 0.00 0.00 78 1011.6
20260507141555 59 4 0.9 1.7 0.00 0.00 0.00 78 1011.6
20260507141054 60 0 0.9 1.7 0.00 0.00 0.00 80 1011.3
20260507140533 60 0 0.9 1.7 0.00 0.00 0.00 80 1011.3
20260507140031 59 5 0.9 1.7 0.00 0.00 0.00 80 1011.4
20260507135530 59 5 0.9 1.7 0.00 0.00 0.00 80 1011.4
20260507135029 59 3 0.9 0.9 0.00 0.00 0.00 80 1012.0
20260507134528 59 3 0.9 0.9 0.00 0.00 0.00 80 1012.0
20260507134028 59 0 0.9 1.7 0.00 0.00 0.00 80 1011.9
20260507133527 59 0 0.9 1.7 0.00 0.00 0.00 80 1011.9
20260507133025 59 356 0.9 1.7 0.00 0.00 0.00 80 1011.8
20260507132524 59 356 0.9 1.7 0.00 0.00 0.00 80 1011.8
20260507132043 59 353 0.9 1.7 0.00 0.00 0.00 81 1012.0
20260507131522 59 353 0.9 1.7 0.00 0.00 0.00 81 1012.0
20260507131021 59 354 0.9 1.7 0.00 0.00 0.00 81 1011.8
20260507130520 59 354 0.9 1.7 0.00 0.00 0.00 81 1011.8
20260507130019 59 352 0.9 1.7 0.00 0.00 0.00 82 1011.7
20260507125518 59 352 0.9 1.7 0.00 0.00 0.00 82 1011.7
20260507125020 59 2 0.9 1.7 0.00 0.00 0.00 82 1011.8
20260507124517 59 2 0.9 1.7 0.00 0.00 0.00 82 1011.8
20260507124015 59 2 0.9 1.7 0.00 0.00 0.00 82 1011.8
20260507123514 59 2 0.9 1.7 0.00 0.00 0.00 82 1011.8
20260507123013 59 3 0.9 1.7 0.00 0.00 0.00 82 1011.9
20260507122513 59 3 0.9 1.7 0.00 0.00 0.00 82 1011.9
20260507122010 59 355 0.9 2.6 0.00 0.00 0.00 82 1011.6
20260507121511 59 355 0.9 2.6 0.00 0.00 0.00 82 1011.6
20260507121009 59 0 0.9 2.6 0.00 0.00 0.00 83 1011.8
20260507120508 59 0 0.9 2.6 0.00 0.00 0.00 83 1011.8
20260507120027 59 5 0.9 1.7 0.00 0.00 0.00 83 1011.7
20260507115508 59 5 0.9 1.7 0.00 0.00 0.00 83 1011.7
20260507115005 59 18 0.9 1.7 0.00 0.00 0.00 83 1011.6
20260507114504 59 18 0.9 1.7 0.00 0.00 0.00 83 1011.6
20260507114004 59 55 0.9 1.7 0.00 0.00 0.00 83 1011.4
20260507113502 59 55 0.9 1.7 0.00 0.00 0.00 83 1011.4
20260507113023 59 333 0.9 1.7 0.00 0.00 0.00 83 1011.3
20260507112500 59 333 0.9 1.7 0.00 0.00 0.00 83 1011.3
20260507111959 58 6 0.9 0.9 0.00 0.00 0.00 83 1011.3
20260507111459 58 6 0.9 0.9 0.00 0.00 0.00 83 1011.3
20260507110956 59 16 0.9 0.9 0.00 0.00 0.00 83 1011.2
20260507110456 59 16 0.9 0.9 0.00 0.00 0.00 83 1011.2
20260507105956 59 0 0.9 0.9 0.00 0.00 0.00 83 1011.1
20260507105515 59 0 0.9 0.9 0.00 0.00 0.00 83 1011.1
20260507104953 59 28 0.9 0.9 0.00 0.00 0.00 82 1010.9
20260507104454 59 28 0.9 0.9 0.00 0.00 0.00 82 1010.9
20260507103952 59 0 0.9 2.6 0.00 0.00 0.00 82 1010.8
20260507103451 59 0 0.9 2.6 0.00 0.00 0.00 82 1010.8
20260507102949 59 2 0.9 1.7 0.00 0.00 0.00 82 1010.9
20260507102448 59 2 0.9 1.7 0.00 0.00 0.00 82 1010.9
20260507102007 59 355 0.9 1.7 0.00 0.00 0.00 82 1010.9
20260507101446 59 355 0.9 1.7 0.00 0.00 0.00 82 1010.9
20260507100945 59 357 0.9 1.7 0.00 0.00 0.00 82 1011.0
20260507100446 59 357 0.9 1.7 0.00 0.00 0.00 82 1011.0
20260507095942 59 0 0.9 2.6 0.00 0.00 0.00 82 1011.2
20260507095442 59 0 0.9 2.6 0.00 0.00 0.00 82 1011.2
20260507095001 60 7 0.9 1.7 0.00 0.00 0.00 83 1010.8
20260507094441 60 7 0.9 1.7 0.00 0.00 0.00 83 1010.8
20260507093939 60 4 0.9 1.7 0.00 0.00 0.00 84 1010.9
20260507093439 60 4 0.9 1.7 0.00 0.00 0.00 84 1010.9
20260507092957 60 6 0.9 2.6 0.00 0.00 0.00 84 1011.0
20260507092456 60 6 0.9 2.6 0.00 0.00 0.00 84 1011.0
20260507091935 60 2 0.9 1.7 0.00 0.00 0.00 85 1010.5
20260507091434 60 2 0.9 1.7 0.00 0.00 0.00 85 1010.5
20260507090935 61 38 1.7 3.5 0.00 0.00 0.00 86 1010.0
20260507090432 61 38 1.7 3.5 0.00 0.00 0.00 86 1010.0
20260507085931 61 45 1.7 3.5 0.00 0.00 0.00 87 1010.4
20260507085450 61 45 1.7 3.5 0.00 0.00 0.00 87 1010.4
20260507084928 61 36 0.9 2.6 0.00 0.00 0.00 87 1010.6
20260507084428 61 36 0.9 2.6 0.00 0.00 0.00 87 1010.6
20260507083926 61 32 0.9 1.7 0.00 0.00 0.00 87 1011.0
20260507083426 61 32 0.9 1.7 0.00 0.00 0.00 87 1011.0
20260507082925 61 90 0.9 1.7 0.00 0.00 0.00 87 1010.8
20260507082444 61 90 0.9 1.7 0.00 0.00 0.00 87 1010.8
20260507081943 62 20 0.9 0.9 0.00 0.00 0.00 87 1010.6
20260507081422 62 20 0.9 0.9 0.00 0.00 0.00 87 1010.6
20260507080941 62 45 0.9 0.9 0.00 0.00 0.00 87 1010.9
20260507080420 62 45 0.9 0.9 0.00 0.00 0.00 87 1010.9
20260507075919 62 90 0.9 0.9 0.00 0.00 0.00 87 1010.9
20260507075417 62 90 0.9 0.9 0.00 0.00 0.00 87 1010.9
20260507074917 62 53 0.9 0.9 0.00 0.00 0.00 87 1011.0
20260507074417 62 53 0.9 0.9 0.00 0.00 0.00 87 1011.0
20260507073917 62 203 0.9 0.9 0.00 0.00 0.00 87 1011.2
20260507073414 62 203 0.9 0.9 0.00 0.00 0.00 87 1011.2
20260507072914 62 135 0.9 0.9 0.00 0.00 0.00 87 1010.9
20260507072411 62 135 0.9 0.9 0.00 0.00 0.00 87 1010.9
20260507071911 62 90 0.9 0.9 0.00 0.00 0.00 87 1010.8
20260507071411 62 90 0.9 0.9 0.00 0.00 0.00 87 1010.8
20260507070909 62 161 0.9 1.7 0.00 0.00 0.00 87 1010.9
20260507070428 62 161 0.9 1.7 0.00 0.00 0.00 87 1010.9
20260507065929 62 45 0.9 2.6 0.00 0.00 0.00 86 1010.4
20260507065405 62 45 0.9 2.6 0.00 0.00 0.00 86 1010.4
20260507064905 62 18 0.9 0.9 0.00 0.00 0.00 86 1010.9
20260507064403 62 18 0.9 0.9 0.00 0.00 0.00 86 1010.9
20260507063922 62 135 0.9 0.9 0.00 0.00 0.00 86 1010.5